Regional Weather Roundup
Issued by NWS Wakefield, VA

Home | Current Version | Previous Version | Text Only | Print | Product List | Glossary On
Versions: 1 2 3 4 5 6 7 8 9 10 11 12 13 14 15 16 17 18 19 20 21 22 23 24 25 26 27
000
ASUS41 KAKQ 200810
RWRAKQ

REGIONAL WEATHER ROUNDUP
NATIONAL WEATHER SERVICE WAKEFIELD VA
400 AM EDT SUN APR 20 2014

Note: "fair" indicates few or no clouds below 12,000 feet with no
significant weather and/or obstructions to visibility. * = Denotes
station may not report precipitation (e.g., rain,snow,etc.),
thunder or fog.

VAZ042-051-052>054-056-200900-
NORTHERN VIRGINIA

CITY           SKY/WX    TMP DP  RH WIND       PRES   REMARKS
WASH NATIONAL  CLOUDY    52  39  61 NE6       30.33R
DULLES         CLOUDY    42  32  67 CALM      30.33R
FORT BELVOIR   CLOUDY    44  38  80 CALM      30.33R
QUANTICO       CLOUDY    47  38  71 NW6       30.33R
FREDERICKSBRG* CLOUDY    45  41  87 CALM      30.31R
STAFFORD*      CLOUDY    42  40  91 CALM      30.36R
WARRENTON      CLOUDY    42  39  89 CALM      30.31S
CULPEPER*      CLOUDY    43  34  70 CALM      30.33R
MANASSAS*      CLOUDY    43  39  87 CALM      30.33R
LEESBURG*      CLOUDY    48  32  53 N3        30.34R
WINCHESTER     CLOUDY    46  28  49 CALM      30.33R
$$

VAZ048-049-060>072-079>083-200900-
CENTRAL AND SOUTH CENTRAL VIRGINIA...AND NORTH CENTRAL NORTH CAROLINA

CITY           SKY/WX    TMP DP  RH WIND       PRES   REMARKS
RICHMOND       CLOUDY    49  33  54 N7        30.27R
CHESTERFIELD*  NOT AVBL
HANOVER        CLOUDY    45  37  73 CALM      30.30R
TAPPAHANNOCK*  CLOUDY    48  34  57 N5        30.29R
CHARLOTTSVILLE CLOUDY    49  31  49 NE6       30.30S
ORANGE*        CLOUDY    45  34  65 CALM      30.32S
LOUISA*        CLOUDY    43  39  87 N3        30.29S
FARMVILLE*     CLOUDY    48  37  66 N6        30.26S
SOUTH HILL*    CLOUDY    50  37  62 N7        30.28S
ROANOKE RAPIDS CLOUDY    52  41  66 NE10      30.19F
RALEIGH        CLOUDY    52  37  56 NE8       30.20R
$$

VAZ088>098-200900-
SOUTHEAST VIRGINIA

CITY           SKY/WX    TMP DP  RH WIND       PRES   REMARKS
NORFOLK        CLOUDY    51  39  63 NE12G22   30.21S
VIRGINIA BEACH CLOUDY    51  38  60 NE20      30.20S
NORFOLK NAVAL  CLOUDY    52  38  58 NE15      30.23R
WEST POINT*    CLOUDY    50  35  56 CALM      30.29R
NEWPORT NEWS   CLOUDY    54  37  52 NE12      30.24R
LANGLEY AFB    CLOUDY    51  41  69 NE10      30.24R
FORT EUSTIS    CLOUDY    53  38  57 NE6       30.22S
WILLIAMSBURG*  CLOUDY    50  41  71 NE5       30.26R
FRANKLIN*      CLOUDY    50  41  71 N5        30.21F
WAKEFIELD      CLOUDY    48  37  65 N3        30.23S
$$

VAZ020-022-025-037-045-200900-
WESTERN AND SOUTHWEST VIRGINIA

CITY           SKY/WX    TMP DP  RH WIND       PRES   REMARKS
STAUNTON*      CLOUDY    45  33  63 CALM      30.31F
HOT SPRINGS VA CLOUDY    43  28  56 E12       30.31S
LYNCHBURG      CLOUDY    54  37  52 NE8       30.28S
DANVILLE       CLOUDY    49  42  77 NE8       30.24S
MARTINSVILLE     N/A     45  42  88 N3        30.28R
ROANOKE        CLOUDY    48  40  73 NE7       30.28S
BLACKSBURG     MOCLDY    50  41  71 E6        30.28S
DUBLIN*        MOCLDY    45  40  81 CALM      30.27S
MARION*        MOCLDY    40  37  89 CALM      30.27S
HILLSVILLE*    MOCLDY    46  36  66 NE3       30.28R
RICHLANDS*     PTSUNNY   54  37  52 SE9       30.23S
WISE*          PTCLDY    52  34  50 CALM      30.23S
ABINGDON*      MOCLDY    50  38  62 E7        30.22F
$$

MDZ021>025-VAZ099-100-200900-
SOUTHERN MARYLAND AND THE DELMARVA PENINSULA

CITY           SKY/WX    TMP DP  RH WIND       PRES   REMARKS
PATUXENT RIVER CLOUDY    49  38  65 NE6       30.30R
BAY BRIDGE APT CLOUDY    50  37  62 N3        30.32S
LEONARDTOWN    CLOUDY    45  36  70 CALM      30.32R
DOVER          CLOUDY    45  45 100 N9        30.30R
GEORGETOWN     CLOUDY    47  40  76 NE6       30.31R
EASTON         CLOUDY    47  39  75 CALM      30.35R
CAMBRIDGE      CLOUDY    50  37  62 N5        30.31R
SALISBURY      CLOUDY    46  37  71 NE5       30.31R
OCEAN CITY     CLOUDY    49  39  68 NE9       30.30R
WALLOPS ISLAND CLOUDY    50  36  58 NE9       30.27S
ACCOMACK*      CLOUDY    50  32  50 NE9       30.24F
$$

NCZ012>017-030>032-200900-
EASTERN NORTH CAROLINA

CITY           SKY/WX    TMP DP  RH WIND       PRES   REMARKS
ELIZABETH CITY LGT RAIN  53  38  56 NE17      30.16S
AHOSKIE*       MOCLDY    50  38  64 N12G17    30.18F
EDENTON*       CLOUDY    49  45  85 N7        30.15S
CURRITUCK*     CLOUDY    53  38  56 NE15G24   30.17S
KILL DEVIL HLS DRIZZLE   49  47  90 NE10G18   30.11F
MANTEO         CLOUDY    51  47  84 NE17G26   30.12F
CAPE HATTERAS  LGT RAIN  53  53 100 NE16G26   30.07S FOG
GOLDSBORO      MOCLDY    49  45  85 NE10      30.12F
WASHINGTON     CLOUDY    48  44  85 N9        30.14S
GREENVILLE     LGT RAIN  46  45  93 N5        30.17S
NEW BERN       LGT RAIN  53  50  89 NE13G21   30.11R FOG
WILMINGTON     CLOUDY    54  51  90 N16       30.05R
$$

VAZ048-200900-
ELSEWHERE

CITY           SKY/WX    TMP DP  RH WIND       PRES   REMARKS
HARRISBURG PA  MOCLDY    43  30  60 CALM      30.36R
BALTIMORE      CLOUDY    50  31  48 N6        30.32S
ANNAPOLIS      CLOUDY    50  41  71 CALM      30.32S
ANDREWS AFB    CLOUDY    48  35  59 N3        30.31S
WILMINGTON DE  CLOUDY    48  33  56 NE13      30.36R
PHILADELPHIA   CLOUDY    50  27  40 NE8       30.37R
WILDWOOD NJ*   CLOUDY    45  34  65 N10       30.33S
ATLANTIC CITY  CLOUDY    45  32  60 N10       30.33S
HENDERSON NC   CLOUDY    49  38  63 N6        30.22S
GREENSBORO     MOCLDY    51  42  71 NE8       30.21R
ROCKY MOUNT    MOCLDY    51  39  63 N10       30.17F
FAYETTEVILLE   CLOUDY    52  44  74 N17       30.12F
CHARLOTTE      CLOUDY    51  45  79 N6        30.19R
$$

VAZ100-200900-
MARINE

STATION/POSITION TIME  TEMP    WIND        PRES    WAVE   SWELL
                       AIR SEA DIR/SP/G            HT/PER HT/PER
                 (UTC) (F)     (DEG/KT/KT) (MB)    (FT/S) (FT/S)
44066 TX TWR #4  0800   46 44   60/ 19/ 25 1027.4R   4/10   3/10
CAPE MAY NJ      0800   48 54   50/  4/  8 1026.4R
LEWES DE         0800   50 49   30/ 13/ 15 1025.7R
15NM E FENWICK I 0800   48 47              1026.1R   3/10
OCEAN-CITY-INLET 0800   49 48   30/  8/ 14 1025.7R
WACHAPREAGUE VA  0800   51 52   40/ 15/ 22 1023.5F
THOMAS POINT MD  0800   53 53   10/ 11/ 11 1027.0R
GOOSES REEF MD   0800   52      30/  8/ 10 1027.4R
COVE POINT MD    0800   52      40/ 10/ 12 1026.0R
SOLOMONS ISLAND  0800      52                N/A
BISHOPS HEAD MD  0800   50 55   30/ 12/ 14 1025.7R
PINEY POINT MD   0800           40/  6/  7   N/A
POTOMAC MD       0800   51      50/ 10/ 12 1024.9R
CAMBRIDGE MD     0800   50 56   30/  5/  7 1025.7R
LEWISETTA VA     0800   52 54   40/  8/ 11 1025.2S
RAPPAHANNOCK LGT 0800           30/ 17/ 19 1024.3S
STINGRAY PT      0800   52      50/ 14/ 16 1024.1F
YORK RVR RNG VA  0800   52      50/ 16/ 18 1023.0R
YORKTOWN VA      0800   53 55   40/ 12/ 13 1023.6S
JAMESTOWN VA     0800   51      40/  4/  6   N/A
DOMINION TERM VA 0800   53      30/  5/ 10 1023.3S
KIPTOPEKE VA     0800      52   60/ 12/ 18   N/A
CHES BAY BRIDGE  0800   51 51   30/ 21/ 25 1022.5R
CAPE HENRY VA    0800   50      40/ 22/ 25   N/A
CHESAPEAKE LGHT  0700   50      40/ 23/ 24 1022.9F
WILLOUBY STN VA  0800   52      40/ 18/ 20 1022.3R
S CRANEY ISL VA  0800           10/ 14/ 18 1023.1R
CAPE HENRY BUOY  0800      47                N/A     5/ 9   2/11
1ST LANDING BUOY 0800      46                N/A     4/ 8   3/ 8
64NM E OF VA BCH 0800   52 48   30/ 21/ 25 1020.4F   8/ 8   5/ 8
DUCK PIER NC     0800   51 49   30/ 24/ 27 1019.4F
44100 DUCK FRF   0800      48                N/A     7/ 8   2/11
44056 DUCK FRF   0800      47                N/A     7/ 8   2/11
OREGON INLET NC  0800   51 51   10/ 16/ 21 1019.2F
HATTERAS NC      0800   55 56   30/ 15/ 22 1018.0F
DIAMOND SHLS NC  0700   63 75   20/ 27/ 35 1015.7   14/11  10/11
CAPE LOOKOUT NC  0700   57      20/ 24/ 27 1016.8F
FRYING PAN SHLS  0800   61 68   40/ 35/ 43 1011.6F  10/ 8   3/11
$$



USA.gov is the U.S. government's official web portal to all federal, state and local government web resources and services.